Das Wetter in  D-61279 Heinzenberg / Taunus





Wetter Minimum- & Maximum-Werte im Juni 2009

Standort: Heinzenberg / Taunus - Höhe 297 m         8 24' 1" Ost 50 21' 51" Nord
(   3-stündige Aktualisierung    letzte Aktualisierung um 19:04 am 30.06.2009  )


Messgrösse

Minimum

Maximum

Durchschnitt

Temperatur West /
Luftfeuchte West
Anklicken für Monats-Diagramm

3,9 C

05:38
06.06.2009

39 %

18:39
02.06.2009

27,9 C

16:19
29.06.2009

95 %

08:06
16.06.2009

Temp

14,8 C

Feuchte

76 %

Temperatur Ost /
Luftfeuchte Ost
Anklicken für Monats-Diagramm

3,7 C

04:33
06.06.2009

--

--
--

27,7 C

15:09
29.06.2009

--

--
--

14,7 C

--

Luftdruck Anklicken für Monats-Diagramm

998,3 hPa

17:28
06.06.2009

1027,4 hPa

02:03
23.06.2009

1016,3 hPa

Taupunkt

0,7 C

04:33
06.06.2009

19,4 C

18:49
30.06.2009

10,4 C

Windchill
( gefühlte Temperatur )

0,9 C

05:28
12.06.2009

27,9 C

16:19
29.06.2009

13,3 C

Windgeschwindigkeit /
Windrichtung
Anklicken für Monats-Diagramm

---

42,8 km/h / W

11:33
11.06.2009

7,9 km/h
W

Helligkeit /
Sonnenschein
Anklicken für Monats-Diagramm
Anklicken für Monats-Diagramm

Sonnenschein:

185:11 Stunden

Max: 13:15 Std am
13.06.2009

126 klux

14:21
04.06.2009

37 klux

Solarstrahlung Anklicken für Monats-Diagramm

---

862 W/m

14:21
04.06.2009

273 W/m

Regenmenge
    Juni 2009
Anklicken für Monats-Diagramm

Insgesamt 114,2 l/m

in 58:25 Stunden
an 13 Tagen

38,0 l/m

12:06
15.06.2009

Gesamtmenge

114,2 l/m

Regen-Tage
    Juni 2009
Anklicken für Monats-Diagramm

>   0 mm/Tag

>   2 mm/Tag

>   5 mm/Tag

> 10 mm/Tag

> 20 mm/Tag

13 Tage     
9 Tage     
5 Tage     
4 Tage     
2 Tage     

Eisige Tage Juni 2009 / 2008

Tmin ≤ -10C     

0 Tage

/

0 Tage

Eistage Juni 2009 / 2008

Tmax <     0C     

0 Tage

/

0 Tage

Frosttage Juni 2009 / 2008

Tmin ≤     0C     

0 Tage

/

0 Tage

Kalte Tage Juni 2009 / 2008

Tmax <   10C     

  1 Tag

/

0 Tage

Warme Tage Juni 2009 / 2008

Tmax ≥   20C     

16 Tage

/

25 Tage

Sommertage Juni 2009 / 2008

Tmax ≥   25C     

7 Tage

/

11 Tage

Heisse Tage Juni 2009 / 2008

Tmax ≥   30C     

0 Tage

/

  1 Tag


Monatsdiagramm Juni 2009

Die Kurven zeigen den Durchschnittswert des jeweiligen Tages an


Wetter-Monatsübersicht Juni 2009
Datum
  Temperatur
   Luftdruck
   Wind
  Regen
   Luftfeuchte
   Helligkeit

Sonnen-
schein


Temp.

Min.
Temp.

Max.
Temp.


Luftdruck

Min.
Luftdruck

Max.
Luftdruck

-Geschw.
Haupt-Richtg.

Max.
Wind

Menge /
Dauer


Feuchte

Min.
Feuchte

Max.
Feuchte


Helligkeit

Max.
Helligkeit

1.
Juni
15,7 C10,4 C
04:23
23,4 C
16:08
1020,2 hPa1017,3 hPa
16:08
1022,7 hPa
00:23
6,0 km/h
SO
24,9 km/h
17:53  
3,0 l/m
2:00 Stunden
77 %59 %
16:58
85 %
07:38
38,9 klux118,0 klux
15:08
7:35 Std 
2.
Juni
16,9 C9,0 C
05:54
25,0 C
18:34
1017,8 hPa1015,1 hPa
18:34
1020,1 hPa
05:54
7,7 km/h
NW
34,6 km/h
17:34  
---
69 %39 %
18:39
91 %
08:09
53 klux117 klux
13:54
12:15 Std 
3.
Juni
13,3 C9,5 C
07:10
17,7 C
15:15
1016,6 hPa1015,3 hPa
18:45
1018,0 hPa
07:10
15,1 km/h
NW
36,8 km/h
13:30  
---
58 %47 %
15:25
67 %
07:30
52 klux119 klux
14:55
9:20 Std 
4.
Juni
10,3 C7,7 C
06:06
12,8 C
17:11
1015,3 hPa1012,8 hPa
23:42
1017,1 hPa
08:01
11,8 km/h
NW
29,2 km/h
18:21  
---
63 %55 %
17:16
69 %
05:31
28 klux126 klux
14:21
2:00 Std 
5.
Juni
10,1 C6,0 C
06:22
15,4 C
18:07
1011,1 hPa1007,8 hPa
23:53
1013,9 hPa
01:07
6,0 km/h
NW
20,8 km/h
17:27  
---
66 %53 %
18:47
78 %
07:42
31 klux81 klux
17:12
4:35 Std 
6.
Juni
7,4 C3,9 C
05:38
9,4 C
17:28
1001,7 hPa998,3 hPa
17:28
1007,9 hPa
00:53
3,7 km/h
W
18,6 km/h
22:29  
15,5 l/m
12:20 Stunden
86 %70 %
00:03
92 %
20:03
6,4 klux17,4 klux
10:13
--- 
7.
Juni
11,3 C7,2 C
05:34
16,7 C
17:54
1003,7 hPa1000,5 hPa
00:04
1007,5 hPa
23:55
9,1 km/h
W-SW
34,8 km/h
19:59  
1,1 l/m
1:55 Stunden
84 %70 %
23:45
93 %
07:39
29,9 klux116,0 klux
10:44
3:15 Std 
8.
Juni
13,8 C8,5 C
01:15
19,0 C
15:40
1008,9 hPa1007,5 hPa
00:00
1010,4 hPa
08:55
10,2 km/h
W-SW
28,7 km/h
09:35  
---
67 %51 %
16:25
78 %
01:40
37 klux122 klux
12:15
4:10 Std 
9.
Juni
14,6 C12,4 C
23:07
20,6 C
15:11
1009,4 hPa1007,0 hPa
02:36
1012,3 hPa
21:11
11,5 km/h
W-SW
41,1 km/h
17:11  
6,4 l/m
5:55 Stunden
80 %59 %
15:15
88 %
19:41
33 klux123 klux
14:21
4:00 Std 
10.
Juni
14,5 C12,2 C
04:52
19,8 C
17:07
1013,8 hPa1011,3 hPa
01:27
1016,5 hPa
12:12
12,0 km/h
W-SW
40,8 km/h
09:32  
10,6 l/m
4:25 Stunden
79 %55 %
17:57
91 %
13:42
31 klux119 klux
14:27
3:00 Std 
11.
Juni
12,3 C9,5 C
23:53
14,0 C
15:33
1012,8 hPa1005,0 hPa
05:38
1020,0 hPa
23:53
20,8 km/h
W
42,8 km/h
11:33  
25,8 l/m
9:45 Stunden
89 %81 %
14:58
93 %
19:48
16 klux115 klux
12:58
50 Min 
12.
Juni
12,9 C8,4 C
04:38
18,6 C
15:48
1020,5 hPa1018,9 hPa
15:48
1023,1 hPa
23:59
17,3 km/h
W
39,7 km/h
13:08  
0,2 l/m
20 Minuten
73 %50 %
17:43
93 %
00:23
45 klux119 klux
13:13
9:14 Std 
13.
Juni
13,7 C4,6 C
06:14
21,9 C
15:44
1022,1 hPa1019,7 hPa
19:09
1023,8 hPa
06:14
7,0 km/h
W-NW
30,6 km/h
13:59  
---
68 %50 %
14:59
88 %
08:04
54 klux104 klux
13:04
13:15 Std 
14.
Juni
17,2 C8,4 C
06:05
26,4 C
17:25
1018,8 hPa1015,0 hPa
18:00
1022,2 hPa
05:45
5,8 km/h
W-SW
29,9 km/h
20:10  
1,1 l/m
50 Minuten
71 %51 %
16:30
87 %
07:40
53 klux122 klux
12:50
9:55 Std 
15.
Juni
15,2 C12,5 C
23:36
18,4 C
11:21
1015,9 hPa1013,1 hPa
17:06
1018,2 hPa
01:41
2,9 km/h
NW
22,4 km/h
18:16  
38,0 l/m
11:15 Stunden
90 %82 %
00:01
93 %
16:21
15 klux67 klux
09:21
1:20 Std 
16.
Juni
13,4 C11,0 C
05:56
18,5 C
14:06
1021,3 hPa1016,6 hPa
00:01
1026,0 hPa
23:57
7,7 km/h
W
34,8 km/h
14:36  
4,6 l/m
4:05 Stunden
88 %64 %
14:06
95 %
08:06
36,8 klux124,0 klux
14:11
5:10 Std 
17.
Juni
15,1 C8,0 C
06:22
22,9 C
17:17
1023,1 hPa1017,6 hPa
19:37
1027,3 hPa
03:07
4,9 km/h
SO
25,9 km/h
16:57  
---
79 %52 %
18:22
95 %
09:37
52 klux112 klux
11:07
9:35 Std 
18.
Juni
16,2 C10,6 C
04:53
20,2 C
13:33
1017,5 hPa1015,8 hPa
20:33
1018,9 hPa
11:58
7,7 km/h
W
23,6 km/h
13:03  
---
80 %67 %
14:13
91 %
08:13
24 klux103 klux
12:13
1:45 Std 
19.
Juni
15,7 C11,3 C
23:55
20,4 C
17:34
1017,9 hPa1016,2 hPa
00:04
1021,9 hPa
23:55
10,9 km/h
W-NW
31,3 km/h
18:09  
---
72 %49 %
17:14
88 %
03:44
39 klux122 klux
13:39
6:40 Std 
20.
Juni
11,2 C6,1 C
05:55
17,2 C
14:25
1022,1 hPa1020,1 hPa
14:30
1023,3 hPa
03:10
5,5 km/h
W
36,9 km/h
14:40  
1,8 l/m
1:55 Stunden
78 %61 %
14:35
88 %
08:05
30 klux118 klux
14:25
4:01 Std 
21.
Juni
11,6 C9,4 C
05:31
16,0 C
18:21
1021,6 hPa1019,3 hPa
18:31
1023,0 hPa
00:06
6,5 km/h
W
22,3 km/h
12:16  
3,6 l/m
3:00 Stunden
82 %69 %
14:21
88 %
23:02
34 klux126 klux
14:01
4:15 Std 
22.
Juni
11,9 C8,4 C
05:37
17,4 C
16:42
1024,5 hPa1022,1 hPa
00:02
1027,0 hPa
22:43
4,9 km/h
N
27,8 km/h
18:17  
2,4 l/m
40 Minuten
84 %66 %
16:47
92 %
07:42
28 klux103 klux
16:37
4:15 Std 
23.
Juni
14,4 C6,3 C
06:23
22,1 C
16:48
1024,3 hPa1020,7 hPa
19:13
1027,4 hPa
02:03
8,8 km/h
N-NO
30,8 km/h
12:03  
---
73 %53 %
16:58
93 %
08:43
48 klux117 klux
13:53
8:55 Std 
24.
Juni
18,3 C11,8 C
06:14
24,8 C
16:14
1018,4 hPa1015,2 hPa
17:39
1022,4 hPa
00:04
9,3 km/h
NO
32,2 km/h
15:14  
---
62 %50 %
15:54
72 %
06:54
54 klux104 klux
12:49
12:50 Std 
25.
Juni
19,1 C12,4 C
05:50
26,5 C
17:45
1012,6 hPa1008,7 hPa
17:45
1016,3 hPa
02:00
5,2 km/h
NO
19,2 km/h
15:00  
---
71 %52 %
18:00
84 %
07:00
53 klux117 klux
12:30
12:15 Std 
26.
Juni
19,1 C15,0 C
02:36
25,1 C
14:31
1011,2 hPa1009,0 hPa
16:16
1012,1 hPa
02:36
3,1 km/h
O-NO
18,9 km/h
14:11  
---
77 %62 %
14:36
86 %
07:31
38 klux119 klux
13:11
5:51 Std 
27.
Juni
18,7 C14,0 C
06:27
23,3 C
16:42
1013,5 hPa1011,9 hPa
00:02
1016,0 hPa
23:33
4,7 km/h
NO
22,9 km/h
13:52  
---
81 %69 %
17:32
92 %
08:47
28 klux98 klux
15:47
1:10 Std 
28.
Juni
19,3 C14,0 C
04:48
26,0 C
16:53
1015,6 hPa1013,9 hPa
17:23
1017,0 hPa
23:59
3,2 km/h
NO
16,7 km/h
18:43  
---
78 %60 %
17:33
92 %
08:18
41,4 klux126,0 klux
13:38
8:35 Std 
29.
Juni
20,2 C13,5 C
05:29
27,9 C
16:19
1017,5 hPa1015,9 hPa
17:39
1018,8 hPa
23:59
3,6 km/h
W-NW
22,8 km/h
17:04  
---
76 %57 %
16:24
90 %
08:04
51 klux113 klux
13:59
11:00 Std 
30.
Juni
21,1 C17,8 C
06:44
25,9 C
13:34
1019,3 hPa1018,2 hPa
18:54
1021,0 hPa
23:55
3,0 km/h
NW
20,3 km/h
14:54  
---
78 %64 %
13:49
87 %
06:44
32 klux116 klux
13:14
4:10 Std 



Juni
2009

Temperatur

  

Luftdruck

  

Wind

  

Regen

  

Luftfeuchte

  

Helligkeit

Sonnen-
schein

Min

Max

Min

Max

Max

Max

Min

Max

Max

Max

14,8 C

3,9 C

05:38 Uhr
06.06.2009

27,9 C

16:19 Uhr
29.06.2009

1016,3 hPa

998,3 hPa

17:28 Uhr
06.06.2009

1027,4 hPa

02:03 Uhr
23.06.2009

7,9 km/h

W

42,8 km/h

11:33 Uhr
11.06.2009

38,0 l/m

11:15 Stunden
15.06.2009

76 %

39 %

18:39 Uhr
02.06.2009

95 %

08:06 Uhr
16.06.2009

37 klux

126,0 klux

14:21 Uhr
04.06.2009

13:15 Std

am
13.06.2009

Gesamt

Gesamt

114,2 l/m

13 Tage
58:25 h

185:11 Std


Wetter-Diagramme Juni 2009     Heinzenberg / Taunus   
TemperaturLuftfeuchte
SolarstrahlungLuftdruck
HelligkeitSonnenschein
RegenmengeRegendauer
Wind-GeschwindigkeitWind-Richtung